Sanders, Before Seed, Beyond Harvest
OptiGro Location.

Weather

  • Currently

    Reported at Mid Delta Regional Airport, MS
    6:53 AM CST SUN MAY 27 2018
  • 71°F22°C
  • Partly Cloudy
    Partly Cloudy
  • Feels Like:71°F22°CDew Point:69°F°CHumidity:94% Winds:E 5 mph 8 kph
    Pressure:29.89 in1012 hPaVisibility:10.00 miles16090.00 meters
Time Weather Temp Dew Point
Humidity Winds Visibility Pressure Precipitation
1 hr 24 hr
Sunday, May 27
07:55 07:55 Sunny Sunny 71°F22°C 71°F22°C 100% ESE 3 mphESE 6 kph 10.0 miles16.1 km 29.91 in1013 hPa 0.00 in0.00 mm --
07:35 07:35 Sunny Sunny 71°F21°C 71°F21°C 100% CalmCalm 10.0 miles16.1 km 29.91 in1013 hPa 0.00 in0.00 mm --
07:15 07:15 Sunny Sunny 69°F21°C 69°F21°C 100% CalmCalm 10.0 miles16.1 km 29.91 in1013 hPa 0.00 in0.00 mm --
06:55 06:55 Sunny Sunny 69°F20°C 69°F20°C 100% CalmCalm 7.0 miles11.3 km 29.88 in1012 hPa 0.00 in0.00 mm --
06:35 06:35 Sunny Sunny 67°F20°C 67°F20°C 100% CalmCalm 7.0 miles11.3 km 29.88 in1012 hPa 0.00 in0.00 mm --
06:15 06:15 Sunny Sunny 68°F20°C 68°F20°C 100% CalmCalm 10.0 miles16.1 km 29.88 in1012 hPa 0.00 in0.00 mm --
05:55 05:55 Sunny Sunny 67°F20°C 67°F20°C 100% CalmCalm 7.0 miles11.3 km 29.88 in1012 hPa 0.00 in0.00 mm --
05:35 05:35 Clear Clear 67°F20°C 67°F20°C 100% CalmCalm 7.0 miles11.3 km 29.88 in1012 hPa 0.00 in0.00 mm --
05:15 05:15 Clear Clear 67°F20°C 67°F20°C 100% CalmCalm 10.0 miles16.1 km 29.88 in1012 hPa 0.00 in0.00 mm --
04:55 04:55 Clear Clear 67°F20°C 67°F20°C 100% CalmCalm 10.0 miles16.1 km 29.85 in1011 hPa 0.00 in0.00 mm --
04:35 04:35 Clear Clear 68°F20°C 68°F20°C 100% CalmCalm 10.0 miles16.1 km 29.85 in1011 hPa 0.00 in0.00 mm --
04:15 04:15 Clear Clear 68°F20°C 68°F20°C 100% CalmCalm 10.0 miles16.1 km 29.85 in1011 hPa 0.00 in0.00 mm --
03:55 03:55 Clear Clear 68°F20°C 68°F20°C 100% CalmCalm 10.0 miles16.1 km 29.85 in1011 hPa 0.00 in0.00 mm --
03:35 03:35 Clear Clear 68°F20°C 68°F20°C 100% CalmCalm 10.0 miles16.1 km 29.85 in1011 hPa 0.00 in0.00 mm --
03:15 03:15 Clear Clear 68°F20°C 68°F20°C 100% SE 5 mphSE 7 kph 10.0 miles16.1 km 29.85 in1011 hPa 0.00 in0.00 mm --
02:55 02:55 Clear Clear 67°F20°C 67°F20°C 100% ENE 5 mphENE 7 kph 10.0 miles16.1 km 29.85 in1011 hPa 0.00 in0.00 mm --
02:35 02:35 Clear Clear 68°F20°C 68°F20°C 100% NNE 3 mphNNE 6 kph 10.0 miles16.1 km 29.85 in1011 hPa 0.00 in0.00 mm --
02:15 02:15 Clear Clear 68°F20°C 68°F20°C 100% CalmCalm 10.0 miles16.1 km 29.85 in1011 hPa 0.00 in0.00 mm --
01:55 01:55 Clear Clear 68°F20°C 68°F20°C 100% CalmCalm 10.0 miles16.1 km 29.85 in1011 hPa 0.00 in0.00 mm --
01:35 01:35 Clear Clear 69°F20°C 69°F20°C 100% CalmCalm 10.0 miles16.1 km 29.85 in1011 hPa 0.00 in0.00 mm --
01:15 01:15 Clear Clear 69°F20°C 69°F20°C 100% CalmCalm 10.0 miles16.1 km 29.85 in1011 hPa 0.00 in0.00 mm --
00:55 00:55 Clear Clear 70°F21°C 70°F21°C 100% CalmCalm 10.0 miles16.1 km 29.88 in1012 hPa 0.00 in0.00 mm --
00:35 00:35 Clear Clear 69°F20°C 69°F20°C 100% CalmCalm 10.0 miles16.1 km 29.88 in1012 hPa 0.00 in0.00 mm --
00:15 00:15 Clear Clear 69°F21°C 69°F21°C 100% NNE 5 mphNNE 7 kph 10.0 miles16.1 km 29.88 in1012 hPa 0.00 in0.00 mm --